User: anonymous   Login
Location: Fremont
(37.5480°N, 121.9880°W)
Time: 00:07:20
(UTC-08:00)
Language:

Cosmos 1844 Rocket - Orbit

View from above orbital plane
View from above orbital plane
View from above satellite
View from above satellite

Ground track
Ground track

The orbit data is extracted from the following two-line orbital elements,

1 17974U 87041B   14327.78368677  .00000014  00000-0  30501-4 0  2640
2 17974 071.0091 082.6339 0013527 013.7278 139.0476 14.17128039424012
Epoch (UTC): 23 November 2014 18:48:30
Eccentricity: 0.0013527
inclination: 71.0091°
perigee height: 825 km
apogee height: 845 km
right ascension of ascending node: 82.6339°
argument of perigee: 13.7278°
revolutions per day: 14.17128039
mean anomaly at epoch: 139.0476°
orbit number at epoch: 42401

The dashed part of the orbit path shows where the satellite is in the earth's shadow,  

DLR